Weather History for Greenville/Spartanburg, SC

Change the Weather History Date:

Sunday, July 8, 2012

  Actual Average Record
Temperature  
Mean Temperature 87 °F 80 °F  
Max Temperature 98 °F 90 °F 101 °F (1986)
Min Temperature 76 °F 69 °F 57 °F (1947)
Degree Days  
Heating Degree Days 0 0  
Month to date heating degree days 0 0  
Since 1 June heating degree days 0 2  
Since 1 July heating degree days 0 0  
Cooling Degree Days 22 15  
Month to date cooling degree days 152 118  
Year to date cooling degree days 823 670  
Since 1 June cooling degree days 475 469  
Growing Degree Days 36 (Base 50)    
Moisture  
Dew Point 70 °F    
Average Humidity 62    
Maximum Humidity 79    
Minimum Humidity 45    
Precipitation  
Precipitation 0.00 in 0.14 in 1.85 in (1896)
Month to date precipitation 1.39 1.13  
Year to date precipitation 17.63 24.36  
Snow  
Snow 0.00 in 0.00 in 0.00 in ()
Month to date snowfall T 0.0  
Since 1 June snowfall T 0.0  
Since 1 July snowfall T 0.0  
Snow Depth 0.00 in    
Sea Level Pressure  
Sea Level Pressure 29.94 in    
Wind  
Wind Speed 6 mph (WSW)    
Max Wind Speed 17 mph    
Max Gust Speed 25 mph    
Visibility 10 miles    
Events Thunderstorm    
T = Trace of Precipitation, MM = Missing Value Source: NWS Daily Summary

Daily Weather History Graph

Daily Weather History Graph

Search for Another Location

Airport:

Trip Planner

Search our weather history database for the weather conditions in past years. The results will help you decide how hot, cold, wet, or windy it might be!

Date:

Astronomy

Jul. 08, 2012 Rise Set
Actual Time 6:22 AM EDT 8:45 PM EDT
Civil Twilight 5:53 AM EDT 9:14 PM EDT
Nautical Twilight 5:17 AM EDT 9:50 PM EDT
Astronomical Twilight 4:37 AM EDT 10:29 PM EDT
Moon 11:48 PM EDT (7/8) 11:33 AM EDT (7/8)
Length of Visible Light 15h 21m
Length of Day
14h 22m
Waning Gibbous, 73% of the Moon is Illuminated
Jul 8
Waning Gibbous
Jul 10
Last Quarter
Jul 19
New
Jul 26
First Quarter
Aug 1
Full

Hourly Weather History & Observations

Time (EDT) Temp. Heat Index Dew Point Humidity Pressure Visibility Wind Dir Wind Speed Gust Speed Precip Events Conditions
12:53 AM 81.0 °F 84.9 °F 71.1 °F 72% 29.98 in 10.0 mi WSW 4.6 mph - N/A   Clear
1:53 AM 80.1 °F 83.6 °F 71.1 °F 74% 29.98 in 10.0 mi WSW 5.8 mph - N/A   Clear
2:53 AM 79.0 °F - 71.1 °F 77% 29.97 in 10.0 mi SW 4.6 mph - N/A   Clear
3:53 AM 79.0 °F - 70.0 °F 74% 29.96 in 10.0 mi SW 5.8 mph - N/A   Clear
4:53 AM 78.1 °F - 70.0 °F 76% 29.96 in 10.0 mi WSW 5.8 mph - N/A   Clear
5:53 AM 78.1 °F - 70.0 °F 76% 29.97 in 10.0 mi SW 8.1 mph - N/A   Clear
6:53 AM 77.0 °F - 70.0 °F 79% 29.97 in 10.0 mi WSW 6.9 mph - N/A   Clear
7:53 AM 80.6 °F 84.6 °F 71.6 °F 74% 30.02 in 10.0 mi WSW 8.1 mph - N/A   Clear
8:53 AM 82.9 °F 87.5 °F 71.1 °F 67% 29.99 in 10.0 mi WSW 4.6 mph - N/A   Clear
9:53 AM 86.0 °F 92.2 °F 72.0 °F 63% 29.99 in 10.0 mi WNW 6.9 mph - N/A   Clear
10:53 AM 88.0 °F 94.7 °F 72.0 °F 59% 29.98 in 10.0 mi SW 5.8 mph - N/A   Clear
11:53 AM 91.9 °F 99.5 °F 72.0 °F 52% 29.98 in 10.0 mi WSW 5.8 mph - N/A   Clear
12:53 PM 93.0 °F 100.7 °F 72.0 °F 50% 29.96 in 10.0 mi Variable 5.8 mph - N/A   Clear
1:53 PM 96.1 °F 103.5 °F 71.1 °F 44% 29.94 in 10.0 mi South 8.1 mph - N/A   Clear
2:53 PM 95.0 °F 102.5 °F 71.1 °F 46% 29.93 in 10.0 mi SW 9.2 mph - N/A   Scattered Clouds
3:30 PM 89.6 °F 94.7 °F 69.8 °F 52% 29.96 in 10.0 mi West 10.4 mph 19.6 mph N/A Thunderstorm Thunderstorm
3:36 PM 89.6 °F 96.2 °F 71.6 °F 55% 29.96 in 10.0 mi West 17.3 mph 25.3 mph N/A Thunderstorm Thunderstorm
3:43 PM 87.8 °F 91.4 °F 68.0 °F 52% 29.95 in 10.0 mi West 10.4 mph 25.3 mph N/A   Scattered Clouds
3:45 PM 87.8 °F 90.4 °F 66.2 °F 49% 29.96 in 10.0 mi West 11.5 mph 25.3 mph N/A   Scattered Clouds
3:53 PM 88.0 °F 89.6 °F 64.9 °F 46% 29.91 in 10.0 mi West 9.2 mph - N/A Thunderstorm Partly Cloudy
4:27 PM 89.6 °F 94.7 °F 69.8 °F 52% 29.96 in 10.0 mi WNW 4.6 mph - N/A   Clear
4:53 PM 93.0 °F 101.9 °F 73.0 °F 52% 29.90 in 10.0 mi Variable 5.8 mph - N/A   Clear
5:53 PM 95.0 °F 102.5 °F 71.1 °F 46% 29.86 in 10.0 mi West 9.2 mph - N/A   Clear
6:53 PM 93.0 °F 97.9 °F 69.1 °F 45% 29.85 in 10.0 mi West 9.2 mph - N/A   Clear
7:53 PM 90.0 °F 95.4 °F 70.0 °F 52% 29.86 in 10.0 mi West 6.9 mph - N/A   Clear
8:53 PM 84.9 °F 90.1 °F 71.1 °F 63% 29.88 in 10.0 mi West 3.5 mph - N/A   Clear
9:53 PM 82.0 °F 84.9 °F 68.0 °F 62% 29.90 in 10.0 mi WSW 3.5 mph - N/A   Clear
10:53 PM 81.0 °F 83.0 °F 66.0 °F 60% 29.91 in 10.0 mi WSW 3.5 mph - N/A   Clear
11:53 PM 81.0 °F 83.3 °F 66.9 °F 62% 29.91 in 10.0 mi WSW 6.9 mph - N/A   Clear